Regional Weather Roundup
Issued by NWS Green Bay, WI

Home | Current Version | Previous Version | Text Only | Print | Product List | Glossary On
Versions: 1 2 3 4 5 6 7 8 9 10 11 12 13 14 15 16 17 18 19 20 21 22 23 24 25 26 27 28 29 30 31 32 33 34 35 36 37 38 39 40 41 42 43 44 45 46 47 48 49 50
000
ASUS43 KGRB 202010
RWRGRB

NORTH-CENTRAL AND NORTHEAST WISCONSIN REGIONAL WEATHER ROUNDUP
NATIONAL WEATHER SERVICE GREEN BAY WI
300 PM CDT WED AUG 20 2014

WIZ005-009-010>012-018-019-202100-
NORTH CENTRAL WISCONSIN

CITY           SKY/WX    TMP DP  RH WIND       PRES   REMARKS
IRONWOOD       CLOUDY    66  63  88 E5        29.88F
MANITOWISH WTR CLOUDY    67  59  75 CALM      29.91S
ARBOR VITAE    CLOUDY    72  62  71 N3        29.91F
EAGLE RIVER    CLOUDY    68  58  70 CALM      29.91R
LAND O LAKES   CLOUDY    67  59  74 N5        29.92F
RHINELANDER    CLOUDY    68  58  70 VRB3      29.92S
PHILLIPS       CLOUDY    69  59  71 CALM      29.91S
ANTIGO         CLOUDY    69  60  73 CALM      29.92R
TOMAHAWK       CLOUDY    67  59  74 W3        29.92R
MERRILL        CLOUDY    69  60  73 CALM      29.91S
$$

WIZ013-073-202100-
NORTHEAST WISCONSIN

CITY           SKY/WX    TMP DP  RH WIND       PRES   REMARKS
IRON MOUNTAIN  CLOUDY    68  59  73 N3        29.89F
MARINETTE      CLOUDY    72  63  73 S3        29.87S
OCONTO         PTSUNNY   71  62  73 S6        29.88F
$$

WIZ017-030-035>037-045-202100-
CENTRAL WISCONSIN

CITY           SKY/WX    TMP DP  RH WIND       PRES   REMARKS
MEDFORD        CLOUDY    69  61  75 CALM      29.92S
WAUSAU         CLOUDY    69  61  75 SW5       29.90R
MOSINEE        CLOUDY    68  63  83 VRB5      29.92S
MARSHFIELD     MOSUNNY   75  61  61 CALM      29.90F
WISC RAPIDS    MOSUNNY   77  62  59 MISG      29.90S
STEVENS POINT  PTSUNNY   69  59  71 CALM      29.91F
WAUPACA        SUNNY     77  62  59 CALM      29.89F
SHAWANO        CLOUDY    72  62  71 CALM      29.90S
CLINTONVILLE   CLOUDY    70  59  68 CALM      29.89F
$$

WIZ038-039-048-051-202100-
FOX VALLEY

CITY           SKY/WX    TMP DP  RH WIND       PRES   REMARKS
NWS GREEN BAY  CLOUDY    70  62  76 W5        29.90S
APPLETON       PTSUNNY   72  61  68 N5        29.90F
OSHKOSH        MOSUNNY   74  66  76 E7        29.88F
FOND DU LAC    PTSUNNY   76  65  68 NE8       29.88F
$$

WIZ022-050-052-202100-
EAST CENTRAL WISCONSIN

CITY           SKY/WX    TMP DP  RH WIND       PRES   REMARKS
STURGEON BAY   CLOUDY    70  61  73 SW9       29.90F
MANITOWOC      PTSUNNY   74  63  68 VRB3      29.89F
SHEBOYGAN      CLOUDY    73  64  73 E8        29.89S
$$

LMZ563-521-522-541>543-202100-
LAKESHORE

STATION/POSITION TIME  TEMP    WIND        PRES    VSBY  WAVE
                       AIR SEA DIR/SP/G                  HT/PER
                 (UTC) (F)     (DEG/KT/KT) (MB)    (MI)  (FT/S)
SHEBOYGAN LKSHOR 2000   67 66  150/  6/  7 1012.4F
KEWAUNEE LKSHORE 2000   67     150/  5/  7 1011.6F
NORTHPORT PIER   2000   66     330/  6/  7 1012.2S
N MID LAKE BUOY  2000   62 63  260/  6/  8 1011.6R         1
S GREEN BAY BUOY 2000   68     VRB  6      1013.1F
SISTER BAY LKSHO 1900   70     360/  5/  6   N/A
CHAMBERS ISLAND  2000   70      CALM  /  7 1012.2S
MENOMINEE LKSHOR 2000   67     160/ 10/ 13 1012.4S
$$


USA.gov is the U.S. government's official web portal to all federal, state and local government web resources and services.